Voltar ao catálogo

CZ-4B DEB

AtivoSSO
NORAD 38311·DEBRIS·🇨🇳 China

Lançado Dec 22, 2011 de Taiyuan Satellite Launch Center

Loading…

Próximas Passagens (próximas 24 horas)

TLE

AtualizadoSource: Space-Track

Época: Sep 14, 2026, 10:12 UTC

1 38311U 11079E   26257.42506774  .00001210  00000-0  28923-3 0  9992
2 38311  98.1854 238.8749 0099851 221.7444 291.7601 14.52436871772081

Acompanhe CZ-4B DEB em tempo real com AllMySat

Download on the App Store